Regional Weather Roundup
Issued by NWS

Home | Current Version | Previous Version | Text Only | Print | Product List | Glossary Off
Versions: 1 2 3 4 5 6 7 8 9 10 11 12 13 14 15 16 17 18 19 20 21 22 23 24 25 26 27 28 29 30 31 32 33 34 35 36 37 38 39 40 41 42 43 44 45 46 47 48 49 50

000
ASUS43 KFSD 080010
RWRSD

WEATHER ROUNDUP FOR SOUTH DAKOTA
NATIONAL WEATHER SERVICE SIOUX FALLS SD
700 PM CDT TUE JUL 07 2015

NOTE: "FAIR" INDICATES FEW OR NO CLOUDS BELOW 12,000 FEET WITH NO
SIGNIFICANT WEATHER AND/OR OBSTRUCTIONS TO VISIBILITY.


SDZ001>005-009-010-012>017-080100-
NORTHWEST AND NORTH CENTRAL SOUTH DAKOTA

CITY           SKY/WX    TMP DP  RH WIND       PRES   REMARKS
BUFFALO          N/A     80  51  36 W6        29.89F
MOBRIDGE       SUNNY     76  54  46 S17       29.99F
$$

SDZ012>016-024>037-041>051-057-063-072>074-080100-
SOUTHWEST AND SOUTH CENTRAL SOUTH DAKOTA

CITY           SKY/WX    TMP DP  RH WIND       PRES   REMARKS
RAPID CTY ARPT SUNNY     71  57  61 S17G24    30.01F
PIERRE         PTSUNNY   71  57  61 SE16G24   30.02F
CUSTER         MOSUNNY   65  53  65 VRB7      30.12F HAZE
ELLSWORTH AFB  MOSUNNY   73  57  58 S21G26    29.98F
PHILIP         PTSUNNY   76  57  51 S17G23    30.00F
PINE RIDGE     CLOUDY    71  52  50 S13G21    30.06F
SPEARFISH      FAIR      75  57  53 NE8       30.00F
WINNER         FAIR      73  54  51 SE9       30.07F
$$

SDZ004>011-016>023-039-040-080100-
NORTHEAST SOUTH DAKOTA

CITY           SKY/WX    TMP DP  RH WIND       PRES   REMARKS
ABERDEEN       SUNNY     73  46  38 S8        30.06F
WATERTOWN      SUNNY     68  47  46 SW6       30.10F
BROOKINGS      MOSUNNY   66  46  48 S6        30.13F
SISSETON         N/A     70  46  42 S9        30.08F
$$

SDZ017-020-022-023-036>040-048>070-080100-
SOUTHEAST SOUTH DAKOTA

CITY           SKY/WX    TMP DP  RH WIND       PRES   REMARKS
SIOUX FALLS    PTSUNNY   68  51  54 E9        30.11F
HURON          PTSUNNY   68  45  43 SE8       30.08F
CHAMBERLAIN    PTSUNNY   67  56  67 SE8       30.08F
MITCHELL       MOSUNNY   69  50  50 SE7       30.09F
YANKTON        MOSUNNY   68  50  52 E6        30.09S
$$

ABBREVIATIONS USED IN REMARKS
   TC - TEMPERATURE IN CELSIUS
  WCI - WIND CHILL INDEX
   HX - HEAT INDEX
  VSB - VISIBILITY



USA.gov is the U.S. government's official web portal to all federal, state and local government web resources and services.